User: anonymous   Login
Location: Notre Dame Regional High School Observatory
(37.3056°N, 89.6097°W)
Time: 00:30:36
(UTC-05:00)
Language:

ATLAS 3B R/B - Orbit

View from above orbital plane
View from above orbital plane
View from above satellite
View from above satellite

Ground track
Ground track

The orbit data is extracted from the following two-line orbital elements,

1 28538U 05004B   14301.72207123 0.00000050  00000-0  77109-4 0    04
2 28538  63.8180 203.5191 0206000 239.7725 120.2275 13.43036703    07
Epoch (UTC): 28 October 2014 17:19:46
Eccentricity: 0.0206000
inclination: 63.8180°
perigee height: 944 km
apogee height: 1252 km
right ascension of ascending node: 203.5191°
argument of perigee: 239.7725°
revolutions per day: 13.43036703
mean anomaly at epoch: 120.2275°
orbit number at epoch: 0

The dashed part of the orbit path shows where the satellite is in the earth's shadow,  

DLR